Wind_Speed
23 20 17 19 20 20 20 20 22 22 23 25 25 26 25 26 26 25 25 25 24 24 26 27 27 27 28 29 29 29 30 30 30 30 29 29 29 29 29 29 29 30 29 29
24 22 20 20 21 20 20 20 21 22 23 24 26 27 26 27 27 26 27 27 26 26 27 28 28 29 30 31 30 31 31 31 30 29 29 30 30 30 30 30 30 30 31 31
25 24 23 23 22 23 22 22 22 23 24 26 26 28 27 27 27 28 28 27 27 28 29 30 30 30 31 31 31 31 30 30 30 30 30 30 31 30 30 31 32 32 32 31
23 24 25 25 23 23 24 24 25 26 27 29 29 28 28 28 28 28 28 29 29 29 29 31 31 31 31 31 31 30 30 30 30 30 30 30 31 31 30 31 32 32 32 32
24 24 25 25 23 22 25 27 26 27 28 28 27 28 29 30 29 28 29 29 30 30 30 31 31 31 31 30 31 30 30 30 30 30 30 31 31 31 31 33 33 33 33 33
25 25 25 25 23 24 26 29 29 29 29 29 29 31 31 30 29 29 30 30 30 30 31 31 31 31 30 30 30 31 30 30 31 31 31 31 31 32 32 33 33 33 33 33
27 27 28 27 26 25 28 31 30 29 29 29 29 30 31 30 30 30 30 30 30 30 31 31 31 31 31 31 30 30 30 31 31 31 32 32 33 33 34 34 33 33 34 35
28 28 29 28 28 28 30 31 31 31 31 31 31 32 31 31 31 30 31 31 31 31 31 31 31 31 31 31 30 30 31 31 31 32 33 33 34 35 35 35 35 35 35 36
30 30 30 29 30 30 31 32 32 32 33 33 33 33 32 32 32 32 32 31 31 31 32 31 31 31 31 31 31 31 31 32 32 33 33 34 34 35 35 36 36 37 37 37
32 31 31 32 31 30 31 32 33 34 34 34 34 34 34 33 33 32 31 32 32 32 32 32 31 31 31 31 32 32 31 32 32 33 34 34 35 36 36 37 37 38 38 38
34 33 33 33 34 34 34 34 34 35 35 35 35 35 35 35 34 34 34 34 34 33 34 33 33 32 32 32 32 32 32 32 33 34 35 35 35 36 36 37 37 38 38 38
36 35 35 36 37 37 36 35 35 35 35 36 35 35 35 35 35 36 36 35 35 34 33 32 33 33 32 32 33 33 33 33 34 34 35 35 35 36 36 37 37 37 37 37
36 36 37 37 36 37 37 37 36 36 36 36 37 37 36 36 36 36 36 36 35 34 33 32 32 32 31 32 33 34 34 34 34 35 35 35 35 36 35 35 35 35 35 35
35 35 36 36 37 37 37 37 36 36 36 36 36 37 36 36 35 36 35 35 34 33 33 33 33 32 32 32 33 34 34 34 34 35 35 35 35 35 35 35 34 34 34 34
34 34 35 37 37 38 37 37 37 36 36 36 36 36 36 36 36 35 35 35 34 34 34 34 33 32 32 32 33 33 33 33 34 34 34 34 34 34 35 35 34 33 33 33
33 34 35 35 35 36 36 36 36 36 37 37 36 36 36 36 35 35 35 35 34 34 33 33 33 32 31 32 32 32 32 32 33 33 33 33 34 35 35 34 34 33 33 32
33 33 33 33 33 34 34 35 35 36 36 36 36 36 36 36 35 35 34 34 34 33 33 33 33 32 32 32 32 32 32 33 32 32 32 33 34 34 33 33 33 33 31 30
31 31 31 32 32 33 33 33 34 35 35 35 35 35 35 35 35 34 34 34 34 34 33 34 34 33 33 33 32 31 32 32 31 31 32 32 32 33 33 33 32 31 30 29
29 31 31 30 30 31 31 31 32 33 33 34 34 34 34 34 33 33 33 33 33 34 33 34 33 33 33 33 33 32 31 30 30 31 31 31 31 32 32 31 31 30 30 29
27 28 28 28 28 29 30 30 31 31 31 32 32 32 33 33 32 32 33 33 33 34 33 33 33 33 33 33 33 32 30 30 30 30 30 30 30 30 30 30 30 29 29 28
24 25 26 27 27 27 28 29 29 29 29 30 30 31 31 32 32 32 32 33 33 33 33 32 32 32 32 32 31 31 30 30 30 30 29 30 30 30 29 29 29 28 27 26
22 23 23 24 25 26 26 27 27 27 27 27 28 29 30 30 30 30 31 31 31 32 32 32 31 31 31 30 29 29 28 28 28 27 28 28 28 29 28 28 28 27 26 26
20 21 22 22 23 24 24 25 25 25 25 26 26 27 28 28 28 28 29 29 30 30 30 30 30 29 28 28 28 28 27 27 27 27 27 27 27 27 28 27 27 27 26 26
19 20 21 21 22 23 23 23 23 23 23 23 24 25 25 26 27 28 28 29 29 29 29 28 28 28 28 27 27 28 27 27 27 27 27 27 27 26 27 26 26 26 26 26
20 20 20 20 21 21 20 21 22 23 24 23 24 24 24 25 26 26 27 28 28 28 28 27 26 27 27 28 28 28 28 28 27 27 26 26 26 26 26 26 25 25 25 25
20 20 20 20 21 21 20 20 20 22 22 22 22 23 23 23 23 25 26 26 26 26 25 26 26 26 26 26 27 27 27 27 27 27 27 26 26 26 26 26 25 25 25 25
19 19 20 20 20 20 20 20 21 22 22 21 21 21 21 21 22 22 22 22 22 23 24 25 26 26 26 26 26 26 27 26 26 26 26 25 26 26 26 26 26 26 26 25
Wind_Direction
233 233 239 250 253 253 249 247 250 256 264 269 272 276 279 281 280 280 277 275 276 278 280 284 287 289 290 292 293 293 293 292 293 295 296 297 298 299 300 300 301 302 303 302
232 231 235 241 246 252 254 251 253 258 263 268 267 271 275 277 281 282 279 278 278 277 279 282 285 287 290 291 291 291 292 292 293 294 295 295 295 296 298 299 299 300 300 300
240 236 238 241 240 246 250 252 254 259 262 263 264 268 275 276 279 280 280 281 280 280 282 284 285 287 289 290 291 291 292 292 293 294 294 295 294 294 296 297 298 298 299 300
244 242 244 249 249 248 250 251 252 255 260 262 265 270 274 276 276 277 279 280 279 281 283 285 286 287 288 289 289 289 290 291 293 293 293 293 294 294 295 296 297 297 298 299
244 247 249 250 252 251 252 253 253 255 258 262 267 269 272 274 275 276 278 279 281 283 283 284 286 287 287 287 287 288 290 291 292 292 292 293 294 294 294 294 295 295 295 297
247 248 248 251 254 253 255 259 256 256 259 264 268 270 274 276 276 276 278 280 282 283 284 285 286 286 286 286 287 288 290 291 292 293 293 294 295 295 295 295 294 295 296 297
247 247 250 252 252 253 254 257 258 260 260 264 270 272 274 276 278 279 279 280 281 282 283 285 286 286 286 287 288 289 289 291 292 293 293 293 293 295 295 294 295 296 297 297
246 247 249 251 252 252 256 260 261 263 265 267 269 271 273 274 276 279 281 282 282 283 283 284 286 286 286 287 288 288 288 289 291 292 292 292 294 295 295 295 295 296 297 298
248 248 250 250 252 255 256 259 261 263 265 268 270 271 272 273 276 278 280 282 283 284 284 284 285 284 284 285 286 287 288 288 291 293 294 294 294 295 295 296 296 297 297 297
247 252 254 254 255 256 258 259 261 263 265 267 269 270 272 273 275 276 279 282 283 284 284 283 283 284 284 283 284 286 288 290 291 292 293 294 295 295 295 296 296 297 297 298
250 251 252 255 256 259 262 263 264 265 266 266 269 270 272 273 273 276 279 281 283 284 283 282 281 281 283 284 285 286 288 289 290 292 293 293 294 295 295 296 297 297 297 297
253 254 256 257 258 261 264 265 267 268 268 268 269 269 271 272 273 275 277 279 281 282 283 284 282 282 282 284 285 286 288 289 290 292 293 293 294 294 295 296 296 296 297 297
256 257 259 261 262 264 265 266 268 270 270 270 270 270 271 272 273 274 276 278 279 280 282 283 283 284 283 284 286 287 288 289 290 291 292 292 293 294 295 295 295 295 296 296
259 260 261 262 264 265 266 267 269 270 270 271 272 272 272 272 273 274 274 276 278 279 281 282 283 284 285 285 286 287 288 289 291 292 292 292 293 294 295 296 297 297 297 297
260 261 262 263 264 265 267 268 269 270 270 271 272 272 273 273 273 274 275 275 276 278 280 282 283 284 285 286 287 287 289 290 292 292 291 293 293 294 296 298 298 298 298 298
262 263 264 264 265 265 267 268 269 270 270 271 272 273 273 273 274 275 275 275 276 277 278 280 282 283 285 286 287 287 289 290 292 292 292 293 293 296 297 297 297 297 299 298
262 263 265 266 267 269 270 269 270 271 271 272 272 272 271 272 273 274 274 275 275 277 277 278 280 282 284 287 288 288 290 292 293 292 293 294 295 297 298 298 299 299 299 298
263 265 267 268 269 270 271 272 273 272 272 271 271 271 271 271 273 274 274 275 276 276 278 278 279 281 284 285 286 287 289 291 292 293 294 295 297 299 299 299 299 299 298 297
266 269 270 270 270 271 272 274 274 274 274 272 271 271 271 271 272 272 273 274 276 276 277 278 280 282 283 284 285 286 287 289 291 293 294 295 297 298 299 299 299 299 299 298
267 269 270 271 272 272 273 275 276 275 274 274 273 272 272 271 271 273 274 275 276 277 277 278 279 281 282 284 284 286 287 288 290 292 295 296 296 297 298 299 300 301 300 299
269 271 272 273 274 275 275 277 278 276 274 272 272 272 272 272 272 273 274 275 275 277 277 277 279 279 281 282 283 285 286 287 288 290 292 293 295 296 297 298 300 301 300 301
273 276 279 277 276 276 277 278 279 278 275 273 273 273 273 272 272 274 275 274 274 274 276 277 278 279 280 280 282 284 285 287 287 288 291 293 294 296 297 298 300 300 299 300
278 279 279 277 278 278 278 279 281 280 278 275 275 275 275 274 274 274 274 276 277 278 278 278 278 279 280 280 281 282 284 284 285 287 290 293 297 298 299 300 298 298 297 298
282 282 281 280 280 280 280 281 283 282 280 279 279 277 276 275 275 276 276 276 278 281 281 278 276 278 279 280 280 281 283 285 285 287 291 294 296 297 299 300 299 298 297 297
284 283 281 281 282 282 283 283 283 283 283 284 283 281 279 278 279 279 278 278 279 280 279 276 275 277 277 278 279 280 281 283 286 289 292 293 294 295 297 299 300 299 298 297
284 283 282 281 282 283 285 286 286 287 287 286 284 283 282 282 283 283 282 281 281 279 277 275 273 275 278 279 279 280 282 283 285 288 288 290 292 294 295 297 299 299 299 299
285 285 284 283 283 283 284 285 287 287 287 287 287 286 286 286 287 286 287 286 283 281 279 277 275 276 279 279 278 280 282 284 285 286 287 289 290 291 292 294 296 298 299 299
Height
5867 5869 5872 5875 5876 5877 5878 5878 5880 5881 5880 5878 5876 5876 5875 5874 5873 5873 5872 5872 5872 5872 5871 5870 5868 5867 5865 5864 5862 5860 5858 5856 5854 5852 5851 5849 5847 5844 5842 5840 5838 5836 5833 5831
5861 5864 5866 5869 5871 5872 5872 5873 5874 5874 5874 5872 5871 5871 5869 5869 5868 5867 5867 5866 5866 5865 5864 5863 5862 5861 5859 5857 5855 5853 5851 5849 5847 5845 5843 5842 5840 5838 5836 5833 5831 5829 5826 5824
5855 5858 5859 5861 5865 5866 5867 5867 5868 5868 5867 5865 5865 5865 5863 5863 5862 5861 5861 5860 5859 5859 5858 5857 5855 5854 5852 5850 5848 5846 5843 5842 5840 5838 5836 5835 5832 5831 5829 5826 5824 5821 5819 5817
5849 5852 5853 5858 5859 5859 5860 5860 5861 5861 5861 5859 5858 5858 5858 5857 5856 5855 5854 5853 5853 5852 5850 5849 5848 5846 5844 5843 5841 5838 5836 5834 5833 5831 5829 5827 5825 5823 5821 5819 5816 5813 5811 5809
5843 5844 5847 5850 5850 5852 5853 5852 5853 5853 5853 5851 5851 5851 5851 5850 5850 5849 5848 5846 5845 5844 5843 5841 5840 5838 5837 5835 5833 5831 5829 5827 5826 5824 5822 5819 5817 5815 5813 5811 5808 5805 5803 5800
5836 5838 5840 5843 5843 5844 5846 5845 5846 5845 5846 5846 5845 5844 5844 5843 5842 5841 5840 5839 5838 5836 5835 5834 5832 5831 5829 5827 5825 5824 5822 5820 5818 5816 5814 5812 5809 5807 5804 5802 5799 5797 5795 5792
5829 5831 5832 5834 5836 5837 5839 5837 5837 5837 5837 5838 5837 5837 5836 5835 5835 5834 5833 5831 5830 5829 5827 5826 5824 5823 5821 5819 5818 5816 5814 5812 5810 5808 5806 5803 5801 5799 5796 5793 5791 5788 5786 5784
5822 5824 5826 5826 5828 5829 5829 5829 5830 5829 5830 5830 5830 5829 5829 5828 5828 5826 5825 5824 5823 5821 5820 5818 5816 5814 5813 5811 5809 5808 5806 5804 5802 5800 5797 5795 5792 5790 5787 5784 5782 5779 5777 5774
5815 5817 5817 5817 5818 5820 5820 5821 5822 5822 5822 5822 5822 5821 5821 5820 5820 5819 5817 5816 5815 5813 5812 5810 5808 5807 5805 5803 5801 5800 5798 5796 5793 5791 5789 5786 5783 5781 5778 5775 5772 5770 5767 5764
5807 5808 5809 5810 5810 5811 5811 5812 5813 5813 5814 5814 5814 5813 5813 5812 5811 5810 5809 5808 5806 5805 5804 5802 5800 5798 5797 5795 5793 5791 5789 5787 5785 5782 5780 5777 5774 5771 5769 5766 5763 5760 5757 5753
5798 5800 5801 5802 5802 5801 5802 5803 5804 5804 5805 5805 5805 5804 5803 5803 5803 5801 5800 5799 5798 5796 5795 5793 5791 5790 5788 5786 5785 5783 5781 5779 5776 5774 5771 5768 5765 5762 5759 5756 5752 5749 5746 5743
5789 5790 5791 5792 5793 5793 5794 5795 5795 5795 5796 5796 5795 5795 5794 5794 5793 5792 5791 5790 5789 5787 5786 5784 5782 5781 5779 5777 5776 5773 5771 5769 5767 5764 5762 5759 5756 5753 5750 5747 5743 5740 5736 5733
5779 5780 5781 5782 5783 5784 5784 5785 5786 5786 5786 5786 5785 5785 5784 5783 5783 5782 5781 5780 5779 5778 5777 5775 5773 5772 5770 5768 5766 5764 5762 5760 5757 5755 5752 5749 5747 5744 5741 5737 5734 5730 5726 5723
5770 5771 5772 5773 5773 5774 5774 5775 5776 5776 5776 5775 5775 5775 5774 5773 5773 5772 5771 5771 5770 5768 5767 5766 5764 5763 5761 5759 5757 5755 5753 5750 5748 5745 5743 5740 5737 5734 5731 5727 5724 5720 5717 5713
5761 5761 5762 5763 5764 5764 5765 5765 5765 5766 5765 5765 5765 5764 5764 5763 5763 5762 5761 5760 5760 5759 5758 5756 5755 5754 5752 5750 5748 5746 5744 5741 5739 5736 5733 5730 5727 5724 5721 5717 5714 5711 5707 5704
5751 5752 5752 5753 5753 5754 5754 5755 5755 5755 5755 5755 5754 5754 5753 5752 5752 5752 5751 5751 5750 5749 5748 5747 5746 5744 5743 5741 5739 5737 5735 5733 5730 5727 5724 5721 5718 5715 5710 5707 5704 5701 5698 5695
5741 5742 5743 5743 5744 5744 5744 5744 5744 5744 5744 5744 5743 5743 5742 5742 5742 5742 5741 5740 5740 5739 5738 5737 5736 5735 5733 5732 5730 5728 5726 5723 5721 5718 5716 5713 5709 5706 5701 5697 5695 5692 5689 5687
5732 5732 5733 5734 5734 5734 5734 5734 5733 5733 5733 5733 5732 5732 5731 5731 5731 5731 5731 5730 5729 5729 5728 5727 5726 5725 5724 5722 5720 5718 5716 5714 5712 5709 5707 5704 5701 5697 5694 5690 5687 5684 5681 5679
5723 5723 5723 5724 5724 5724 5724 5723 5723 5723 5722 5722 5721 5721 5721 5720 5720 5720 5719 5719 5719 5719 5718 5717 5716 5715 5714 5713 5711 5709 5707 5705 5703 5701 5698 5695 5692 5689 5686 5682 5679 5676 5674 5671
5715 5715 5715 5715 5715 5715 5714 5714 5713 5713 5712 5712 5711 5710 5710 5710 5710 5709 5708 5708 5709 5708 5708 5707 5706 5706 5705 5703 5701 5700 5698 5696 5694 5692 5690 5687 5684 5681 5678 5675 5672 5669 5666 5664
5708 5707 5707 5706 5706 5706 5705 5705 5704 5703 5703 5702 5701 5701 5700 5700 5700 5700 5699 5699 5699 5698 5697 5697 5696 5695 5694 5693 5692 5690 5689 5687 5685 5683 5681 5678 5676 5673 5670 5667 5665 5662 5659 5657
5701 5700 5699 5699 5698 5698 5697 5696 5695 5694 5693 5692 5692 5691 5691 5690 5690 5690 5690 5689 5688 5687 5687 5686 5686 5685 5684 5683 5682 5681 5679 5678 5676 5674 5673 5670 5667 5664 5662 5660 5657 5655 5652 5650
5694 5693 5692 5691 5691 5691 5690 5689 5688 5686 5685 5684 5683 5682 5682 5681 5681 5680 5680 5679 5678 5677 5676 5676 5676 5675 5674 5674 5673 5671 5670 5669 5667 5666 5664 5661 5659 5657 5654 5652 5649 5647 5645 5643
5688 5688 5686 5685 5685 5684 5683 5682 5680 5679 5677 5676 5675 5674 5673 5673 5672 5671 5671 5670 5669 5667 5666 5666 5666 5666 5666 5665 5664 5663 5662 5661 5659 5658 5656 5654 5651 5649 5647 5644 5641 5639 5637 5635
5682 5681 5680 5680 5679 5678 5677 5675 5674 5672 5671 5669 5668 5666 5665 5665 5664 5663 5661 5660 5660 5658 5658 5658 5658 5657 5657 5656 5655 5654 5653 5652 5651 5649 5648 5646 5644 5642 5640 5637 5634 5632 5630 5628
5676 5675 5674 5674 5673 5671 5670 5669 5667 5666 5664 5663 5661 5660 5658 5657 5655 5654 5653 5652 5651 5650 5649 5649 5649 5648 5648 5647 5647 5646 5644 5643 5642 5641 5639 5638 5636 5634 5632 5629 5627 5625 5623 5620
5670 5669 5668 5667 5666 5664 5663 5662 5661 5660 5658 5656 5654 5653 5651 5650 5648 5647 5645 5644 5642 5642 5641 5640 5640 5639 5639 5638 5638 5637 5636 5635 5633 5632 5631 5629 5628 5626 5624 5622 5620 5618 5616 5613